This demonstration page uses our WeatherBlox Daily Observations layout. Learn more.

Left ArrowRight Arrow

31.31129, -92.44514

Hourly Observations for December 12, 2019

Temp ( °F °C ) Dew Point ( °F °C ) Humidity (%) Winds ( mph kmh ) Pressure ( in mb ) Visibility ( mi km ) Precip ( " mm )
12:53 am 00:53 Clear 37 2.8 31 -0.6 79 79 NNE 3 6 30.42 1030 10 16 0.00 0.00
1:53 am 01:53 Clear 36 2.2 31 -0.6 82 82 NE 3 6 30.40 1029 10 16 0.00 0.00
2:53 am 02:53 Clear 34 1.1 30 -1.1 85 85 Calm 30.40 1029 10 16 0.00 0.00
3:53 am 03:53 Clear 35 1.7 31 -0.6 85 85 ENE 5 7 30.37 1028 10 16 0.00 0.00
4:53 am 04:53 Clear 30 -1.1 29 -1.7 96 96 Calm 30.36 1028 10 16 0.00 0.00
5:53 am 05:53 Clear 31 -0.6 28 -2.2 89 89 Calm 30.36 1028 10 16 0.00 0.00
6:53 am 06:53 Clear 30 -1.1 28 -2.2 92 92 Calm 30.36 1028 10 16 0.00 0.00
7:53 am 07:53 Sunny 34 1.1 32 0 92 92 Calm 30.35 1028 10 16 0.00 0.00
8:53 am 08:53 Sunny 41 5 33 0.6 73 73 E 3 6 30.35 1028 10 16 0.00 0.00
9:53 am 09:53 Sunny 47 8.3 32 0 56 56 ESE 5 7 30.34 1027 10 16 0.00 0.00
10:53 am 10:53 Sunny 51 10.6 32 0 48 48 SE 3 6 30.32 1027 10 16 0.00 0.00
11:53 am 11:53 Sunny 53 11.7 33 0.6 47 47 VRB 5 7 30.27 1025 10 16 0.00 0.00
12:53 pm 12:53 Sunny 57 13.9 37 2.8 47 47 VRB 3 6 30.22 1023 10 16 0.00 0.00
1:53 pm 13:53 Sunny 59 15 40 4.4 49 49 SE 3 6 30.19 1023 10 16 0.00 0.00
2:53 pm 14:53 Sunny 59 15 42 5.6 54 54 Calm 30.19 1022 10 16 0.00 0.00
3:53 pm 15:53 Sunny 61 16.1 43 6.1 52 52 Calm 30.17 1022 10 16 0.00 0.00
4:53 pm 16:53 Sunny 56 13.3 44 6.7 65 65 NW 3 6 30.16 1022 10 16 0.00 0.00
5:53 pm 17:53 Clear 53 11.7 43 6.1 69 69 Calm 30.16 1021 10 16 0.00 0.00
6:53 pm 18:53 Mostly Clear 51 10.6 42 5.6 71 71 Calm 30.15 1021 10 16 0.00 0.00
7:53 pm 19:53 Mostly Cloudy 50 10 43 6.1 77 77 Calm 30.14 1021 10 16 0.00 0.00
8:53 pm 20:53 Clear 48 8.9 44 6.7 86 86 Calm 30.13 1020 10 16 0.00 0.00
9:53 pm 21:53 Clear 46 7.8 42 5.6 86 86 Calm 30.12 1020 10 16 0.00 0.00
10:53 pm 22:53 Clear 45 7.2 42 5.6 90 90 Calm 30.11 1020 10 16 0.00 0.00
11:53 pm 23:53 Mostly Clear 44 6.7 42 5.6 93 93 SE 5 7 30.09 1019 10 16 0.00 0.00

Powered by AerisWeather